SCP
0 0 0 0 0 0 0 0 0 0 0 0 0 0 0 0 0 0 0 0 0 0 0 0 0 0 0 0 0 0 0 0 0 0 0 0 0 0 0 0 0 0 0 0
0 0 0 0 0 0 0 0 0 0 0 0 0 0 0 0 0 0 0 0 0 0 0 0 0 0 0 0 0 0 0 0 0 0 0 0 0 0 0 0 0 0 0 0
0 0 0 0 0 0 0 0 0 0 0 0 0 0 0 0 0 0 0 0 0 0 0 0 0 0 0 0 0 0 0 0 0 0 0 0 0 0 0 0 0 0 0 0
0 0 0 0 0 0 0 0 0 0 0 0 0 0 0 0 0 0 0 0 0 0 0 0 0 0 0 0 0 0 0 0 0 0 0 0 0 0 0 0 0 0 0 0
0 0 0 0 0 0 0 0 0 0 0 0 0 0 0 0 0 0 0 0 0 0 0 0 0 0 0 0 0 0 0 0 0 0 0 0 0 0 0 0 0 0 0 0
1 0 0 0 0 0 0 0 -0 0 0 0 0 0 0 0 0 0 0 0 0 0 0 0 0 0 0 0 0 0 0 0 0 0 0 0 0 0 0 0 0 0 0 0
0 0 0 0 0 0 0 0 0 0 0 0 0 0 0 0 0 0 0 0 0 0 0 0 0 0 0 0 0 0 0 0 0 0 0 0 0 0 0 0 0 0 0 0
0 0 0 0 0 0 0 0 0 0 0 0 0 0 0 0 0 0 0 0 0 0 0 0 0 0 0 0 0 0 0 0 0 0 0 0 0 0 0 0 0 0 0 0
0 1 0 0 0 0 0 0 0 0 0 0 0 0 0 0 0 0 0 0 0 0 0 0 0 0 0 0 0 0 0 0 0 0 0 0 0 0 0 0 0 0 0 0
0 0 0 0 0 0 0 0 0 0 0 0 0 0 0 0 0 0 0 0 0 0 0 0 0 0 0 0 0 0 0 0 0 0 0 0 0 0 0 0 0 0 0 0
0 0 0 0 0 0 0 0 0 0 0 0 0 0 0 0 0 0 0 0 0 0 0 0 0 0 0 0 0 0 0 0 0 0 0 0 0 0 0 0 0 0 0 0
0 0 0 0 0 0 0 0 0 0 0 0 0 0 0 0 0 0 0 0 0 0 0 0 0 0 0 0 0 0 0 0 0 0 0 0 0 0 0 0 0 0 0 0
0 0 0 0 0 0 0 0 0 0 0 0 0 0 0 0 0 0 0 0 0 0 0 0 0 0 0 0 0 0 0 0 0 0 0 0 0 0 0 0 0 0 0 0
0 0 0 0 0 0 0 0 0 0 0 0 0 0 0 0 0 0 0 0 0 0 0 0 0 0 0 0 0 0 0 0 0 0 0 0 0 0 0 0 0 0 0 0
0 0 0 0 0 0 0 0 0 0 0 0 0 0 0 0 0 0 0 0 0 0 0 0 0 0 0 0 0 0 0 0 0 0 0 0 0 0 0 0 0 0 0 0
0 0 0 0 0 0 0 0 0 0 0 0 0 0 0 0 0 0 0 0 0 0 0 0 0 0 0 0 0 0 0 0 0 0 0 0 0 0 0 0 0 0 0 0
0 0 0 0 0 0 0 0 0 0 0 0 0 0 0 0 0 0 0 0 0 0 0 0 0 0 0 0 0 0 0 0 0 0 0 0 0 0 0 0 0 0 0 0
0 0 0 0 0 0 0 0 0 0 0 0 0 0 0 0 0 0 0 0 0 0 0 0 0 0 0 0 0 0 0 0 0 0 0 0 0 0 0 0 0 0 0 0
0 0 0 -0 -0 0 0 0 0 0 0 0 0 0 0 0 0 0 0 0 0 0 0 0 0 0 0 0 0 0 0 0 0 0 0 0 0 0 0 0 0 0 0 0
0 0 0 0 0 0 0 0 0 0 0 0 0 0 0 0 0 0 0 0 0 0 0 0 0 0 0 0 0 0 0 0 0 0 0 0 0 0 0 0 0 0 0 0
0 0 0 0 0 0 0 0 0 0 0 0 0 0 0 0 0 0 0 0 0 0 0 0 0 0 0 0 0 0 0 0 0 0 0 0 0 0 0 0 0 0 0 0
0 0 0 0 0 0 0 0 0 0 0 0 0 0 0 0 0 0 0 0 0 0 0 0 0 0 0 0 0 0 0 0 0 0 0 0 0 0 0 0 0 0 0 0
0 0 0 0 0 0 0 0 0 0 0 0 0 0 0 0 0 0 0 0 0 0 0 0 0 0 0 0 0 0 0 0 0 0 0 0 0 0 0 0 0 0 0 0
0 0 0 0 0 0 0 0 0 0 0 0 0 0 0 0 0 0 0 0 0 0 0 0 0 0 0 0 0 0 0 0 0 0 0 0 0 0 0 0 0 0 0 0
0 0 0 0 0 0 0 0 0 0 0 0 0 0 0 0 0 0 0 0 0 0 0 0 0 0 0 0 0 0 0 0 0 0 0 0 0 0 0 0 0 0 0 0
0 0 0 0 0 0 0 0 0 0 0 0 0 0 0 0 0 0 0 0 0 0 0 0 0 0 0 0 0 0 0 0 0 0 0 0 0 0 0 0 0 0 0 0
0 0 0 0 0 0 0 0 0 0 0 0 0 0 0 0 0 0 0 0 0 0 0 0 0 0 0 0 0 0 0 0 0 0 0 0 0 0 0 0 0 0 0 0
Wind_Speed_500mb
46 43 39 33 44 45 47 49 36 46 36 55 48 37 39 48 41 47 50 50 52 48 45 39 39 36 28 24 19 16 14 13 12 12 10 9 9 3 3 5 8 14 18 23
35 42 41 47 39 33 51 53 49 54 54 54 53 55 47 45 50 55 58 62 57 52 51 48 43 38 31 25 23 21 16 14 14 14 10 8 5 2 3 8 13 16 21 25
33 31 33 38 52 52 41 45 48 47 58 53 51 45 43 41 59 68 71 71 68 62 58 56 50 41 34 26 21 22 17 16 16 14 11 8 2 2 5 11 16 20 23 27
23 22 36 32 37 47 57 55 52 52 53 55 51 53 51 56 65 71 70 72 75 71 65 62 55 44 37 30 27 24 22 22 18 16 11 7 2 3 8 12 15 19 23 26
17 30 42 12 25 44 49 57 55 57 59 65 71 56 62 72 65 72 76 77 75 81 78 67 54 45 39 33 28 26 26 24 18 16 13 8 4 2 7 11 15 19 23 25
12 13 13 26 49 33 27 30 62 48 52 54 68 24 43 48 67 57 64 75 85 87 74 63 56 48 39 39 36 32 28 23 22 18 14 7 3 4 7 11 15 18 21 26
31 21 18 21 12 33 23 25 19 50 70 72 34 58 62 22 44 65 83 84 75 71 68 63 54 45 38 33 36 34 30 27 21 17 11 7 5 8 10 13 15 19 24 29
20 23 34 14 12 29 21 24 21 23 38 43 56 54 50 42 51 71 77 71 69 68 64 58 52 46 41 38 36 33 30 24 19 13 10 9 8 8 12 16 19 23 25 27
19 12 4 11 18 40 63 45 41 34 41 39 41 52 45 44 48 58 63 63 61 63 59 54 49 44 41 41 33 32 28 22 18 15 12 9 8 10 13 15 20 23 27 31
31 29 34 45 48 54 55 71 59 50 44 36 46 46 45 45 50 55 62 64 62 59 54 48 43 44 41 36 37 33 28 23 18 13 10 9 10 12 16 18 21 24 28 32
23 26 36 52 63 63 47 65 76 55 43 35 37 43 52 56 57 56 58 61 59 56 51 48 47 40 39 37 35 31 25 20 16 13 12 12 12 13 16 19 21 24 28 31
15 22 17 14 15 22 19 57 62 52 46 42 42 43 50 54 56 58 57 56 56 53 52 47 41 41 38 35 30 26 23 20 17 14 12 11 12 14 15 17 20 22 26 29
12 18 29 37 33 34 17 37 42 40 37 34 36 43 49 54 55 53 50 52 54 51 46 43 42 38 33 29 26 22 20 18 15 13 13 13 13 15 15 15 17 21 25 29
36 25 23 25 19 17 19 34 38 35 32 29 32 38 44 49 49 50 50 51 50 44 41 39 37 33 29 25 22 19 17 16 14 14 14 14 16 18 20 23 23 24 27 32
22 23 28 28 22 16 21 24 27 27 28 25 29 33 42 46 48 49 48 44 42 41 39 36 33 29 24 20 18 17 16 16 15 15 16 17 18 21 23 26 29 32 33 33
15 19 19 18 17 16 20 22 28 24 21 24 31 37 41 41 41 40 41 40 38 38 34 31 28 23 20 18 18 18 18 18 18 19 19 20 21 23 26 29 32 35 38 44
12 13 16 18 21 23 34 32 26 19 24 28 33 35 34 33 33 35 36 36 34 31 28 23 21 22 22 21 22 21 21 20 21 21 21 22 24 26 29 32 35 36 39 41
20 16 18 22 25 39 32 21 22 23 26 28 28 28 30 31 33 34 34 33 31 29 25 26 26 25 24 23 22 22 22 22 22 23 24 25 27 29 31 34 37 40 41 41
20 15 14 20 22 13 17 23 25 27 28 27 29 31 31 33 33 32 32 31 29 28 28 26 25 25 25 25 25 25 24 25 25 26 27 28 29 31 33 37 39 43 46 48
19 14 10 7 5 13 19 22 22 23 25 28 32 34 36 37 37 36 34 30 27 26 25 26 28 27 27 27 26 26 27 27 28 29 29 30 31 34 37 40 42 44 47 49
17 12 9 7 9 13 17 18 20 23 26 29 31 33 35 35 35 34 32 29 25 25 26 26 28 28 28 28 29 30 30 30 31 32 33 34 36 37 39 42 45 48 49 52
13 11 10 11 12 14 17 20 22 24 26 30 33 35 36 35 33 30 27 26 24 26 26 28 29 30 30 32 33 33 34 35 35 36 37 38 39 40 42 45 47 49 51 53
19 17 17 17 17 18 21 25 27 29 30 32 35 36 35 32 30 29 29 27 28 27 28 30 31 32 34 35 36 37 39 38 39 40 40 40 41 43 45 47 49 51 52 53
21 21 20 22 23 25 25 26 30 31 31 33 34 35 36 34 33 31 29 27 27 28 29 32 34 35 37 38 39 40 39 40 41 42 42 43 44 46 48 49 50 52 54 55
24 24 27 27 26 25 25 28 31 34 36 40 42 41 39 38 35 32 30 30 31 32 32 33 34 36 39 41 41 42 42 42 42 44 44 45 46 48 48 50 52 54 56 57
28 28 28 29 28 28 31 35 38 38 42 44 43 43 41 40 38 37 36 35 35 34 34 35 37 40 41 42 42 43 44 45 45 45 46 47 47 48 49 51 54 56 58 60
30 33 34 34 36 37 38 40 42 44 43 44 43 41 40 41 42 42 41 41 39 38 38 39 41 43 44 45 45 46 47 47 46 46 46 46 47 49 51 53 55 57 59 61
Wind_Direction_500mb
242 254 261 236 225 226 227 232 229 246 240 255 256 252 214 220 210 205 204 200 200 200 199 204 206 206 208 217 225 232 236 241 251 262 253 252 265 293 319 359 1 11 6 360
247 247 242 250 246 242 230 235 242 247 252 254 263 263 251 217 212 212 208 207 204 202 202 204 208 212 219 223 223 221 233 255 257 248 240 243 245 286 343 15 18 19 12 6
247 241 246 247 236 237 243 236 238 241 248 256 254 257 253 232 215 214 212 206 204 204 204 206 210 213 215 222 236 243 239 243 245 241 240 248 271 353 27 25 21 19 14 9
244 248 242 241 241 231 238 238 239 243 252 253 254 264 266 252 228 220 212 203 205 206 206 208 209 210 213 217 227 236 237 241 233 230 230 223 241 358 20 22 13 13 9 5
232 242 246 286 236 224 224 239 240 241 246 254 260 264 269 253 232 228 213 210 202 208 209 208 206 208 214 221 227 233 234 231 226 226 223 216 217 321 15 9 2 360 356 354
219 253 227 244 245 239 233 249 250 242 247 247 247 240 252 253 237 219 202 196 204 210 207 206 207 214 217 223 225 235 231 225 223 217 218 226 250 330 355 349 347 348 346 344
232 247 256 268 330 174 183 239 243 231 232 237 230 227 247 259 213 199 196 199 207 207 205 207 208 210 213 214 217 223 222 217 215 213 218 240 290 325 330 333 334 338 343 341
231 238 248 251 143 204 245 297 295 272 244 247 241 235 229 222 195 192 195 198 202 201 203 205 206 208 212 218 221 219 215 210 210 214 230 249 275 311 328 335 334 331 329 329
228 243 167 186 232 279 297 294 288 278 269 265 233 219 210 198 197 197 199 199 198 200 199 200 203 206 208 212 213 213 212 207 207 215 230 256 292 308 306 310 314 318 324 329
243 247 252 260 263 258 263 266 270 267 264 256 234 218 209 202 198 196 198 198 200 199 199 200 199 201 204 210 210 208 206 206 209 218 234 256 274 286 297 309 316 323 328 330
241 260 269 265 254 254 263 276 260 263 256 245 236 223 213 201 200 198 196 196 201 201 199 197 196 201 203 200 202 202 203 208 212 219 231 246 267 287 303 312 319 325 325 325
237 238 244 276 274 276 264 268 263 263 262 245 232 222 212 203 199 200 196 193 193 194 195 194 198 198 195 196 198 201 206 212 216 226 242 261 278 293 307 313 316 318 320 320
266 246 257 269 287 280 292 265 258 251 245 238 215 208 209 202 194 195 193 191 191 194 194 195 192 192 193 195 201 206 215 222 229 240 253 266 281 291 295 300 305 310 313 314
254 269 275 272 271 307 278 266 259 250 240 224 214 198 206 202 192 189 191 192 192 191 191 190 190 192 195 199 206 214 224 234 245 256 265 275 283 290 297 302 306 311 315 316
248 252 255 271 274 279 266 262 251 229 222 211 209 203 199 193 188 185 189 189 185 185 188 189 191 196 201 209 218 230 240 249 257 263 271 279 287 295 301 307 312 316 317 316
265 256 265 278 291 287 263 228 222 198 192 191 187 184 185 189 189 188 186 186 187 186 187 191 196 202 212 222 231 241 249 254 260 268 274 283 291 297 302 308 313 317 321 323
233 269 257 256 246 234 223 202 202 193 189 188 187 186 187 187 186 186 185 186 187 188 192 199 209 219 225 231 238 243 249 254 260 267 275 283 290 296 302 307 310 315 319 322
220 228 234 230 228 213 204 194 195 194 194 195 192 190 191 192 195 192 192 192 195 201 207 215 221 227 233 240 246 250 254 259 264 270 277 284 291 296 301 305 310 314 316 318
220 235 237 220 222 209 206 201 199 198 195 196 199 199 199 199 199 199 200 203 208 212 218 226 234 238 243 246 249 252 256 261 266 271 277 283 289 295 301 306 310 313 315 318
225 237 243 241 204 189 200 201 203 203 204 204 202 201 201 201 201 201 203 209 217 224 229 235 240 242 246 250 253 257 261 265 271 276 281 286 292 296 301 304 307 311 313 314
217 229 239 230 208 206 208 213 215 213 210 207 208 207 204 202 201 204 211 219 228 236 240 244 248 252 255 258 261 263 266 270 275 280 285 289 293 297 301 304 307 309 310 311
231 246 256 255 239 229 224 219 217 215 214 208 201 199 201 203 208 215 223 233 240 246 250 251 254 256 260 264 266 268 270 273 277 281 284 287 293 297 300 302 304 305 307 310
235 244 246 244 238 231 228 226 220 216 212 211 209 207 207 214 220 226 233 240 247 253 255 257 257 259 263 266 269 270 271 274 277 280 284 288 291 295 297 299 302 304 306 308
239 243 241 237 235 233 231 228 224 220 214 211 211 214 218 224 230 235 243 249 254 258 262 261 259 257 260 265 268 270 273 275 277 281 284 287 290 293 296 298 300 303 305 306
241 245 249 249 249 247 238 232 227 223 220 219 221 223 228 233 238 244 250 254 257 261 263 264 264 264 268 271 272 273 274 275 278 281 283 286 289 292 295 298 301 303 304 305
241 248 252 253 250 244 240 237 235 231 229 230 231 234 237 241 245 251 254 259 263 265 268 269 268 267 269 271 273 273 274 276 278 279 281 285 289 293 297 300 301 303 304 305
243 245 247 249 246 243 242 241 239 239 239 239 241 241 245 248 250 253 257 260 264 268 270 272 273 273 273 274 274 273 273 273 275 278 282 287 291 295 297 299 302 304 304 304
Wind_Speed_850mb
46 43 39 33 44 45 47 49 36 46 36 55 48 37 39 48 41 47 50 50 52 48 45 39 39 36 28 24 19 16 14 13 12 12 10 9 9 3 3 5 8 14 18 23
35 42 41 47 39 33 51 53 49 54 54 54 53 55 47 45 50 55 58 62 57 52 51 48 43 38 31 25 23 21 16 14 14 14 10 8 5 2 3 8 13 16 21 25
33 31 33 38 52 52 41 45 48 47 58 53 51 45 43 41 59 68 71 71 68 62 58 56 50 41 34 26 21 22 17 16 16 14 11 8 2 2 5 11 16 20 23 27
23 22 36 32 37 47 57 55 52 52 53 55 51 53 51 56 65 71 70 72 75 71 65 62 55 44 37 30 27 24 22 22 18 16 11 7 2 3 8 12 15 19 23 26
17 30 42 12 25 44 49 57 55 57 59 65 71 56 62 72 65 72 76 77 75 81 78 67 54 45 39 33 28 26 26 24 18 16 13 8 4 2 7 11 15 19 23 25
12 13 13 26 49 33 27 30 62 48 52 54 68 24 43 48 67 57 64 75 85 87 74 63 56 48 39 39 36 32 28 23 22 18 14 7 3 4 7 11 15 18 21 26
31 21 18 21 12 33 23 25 19 50 70 72 34 58 62 22 44 65 83 84 75 71 68 63 54 45 38 33 36 34 30 27 21 17 11 7 5 8 10 13 15 19 24 29
20 23 34 14 12 29 21 24 21 23 38 43 56 54 50 42 51 71 77 71 69 68 64 58 52 46 41 38 36 33 30 24 19 13 10 9 8 8 12 16 19 23 25 27
19 12 4 11 18 40 63 45 41 34 41 39 41 52 45 44 48 58 63 63 61 63 59 54 49 44 41 41 33 32 28 22 18 15 12 9 8 10 13 15 20 23 27 31
31 29 34 45 48 54 55 71 59 50 44 36 46 46 45 45 50 55 62 64 62 59 54 48 43 44 41 36 37 33 28 23 18 13 10 9 10 12 16 18 21 24 28 32
23 26 36 52 63 63 47 65 76 55 43 35 37 43 52 56 57 56 58 61 59 56 51 48 47 40 39 37 35 31 25 20 16 13 12 12 12 13 16 19 21 24 28 31
15 22 17 14 15 22 19 57 62 52 46 42 42 43 50 54 56 58 57 56 56 53 52 47 41 41 38 35 30 26 23 20 17 14 12 11 12 14 15 17 20 22 26 29
12 18 29 37 33 34 17 37 42 40 37 34 36 43 49 54 55 53 50 52 54 51 46 43 42 38 33 29 26 22 20 18 15 13 13 13 13 15 15 15 17 21 25 29
36 25 23 25 19 17 19 34 38 35 32 29 32 38 44 49 49 50 50 51 50 44 41 39 37 33 29 25 22 19 17 16 14 14 14 14 16 18 20 23 23 24 27 32
22 23 28 28 22 16 21 24 27 27 28 25 29 33 42 46 48 49 48 44 42 41 39 36 33 29 24 20 18 17 16 16 15 15 16 17 18 21 23 26 29 32 33 33
15 19 19 18 17 16 20 22 28 24 21 24 31 37 41 41 41 40 41 40 38 38 34 31 28 23 20 18 18 18 18 18 18 19 19 20 21 23 26 29 32 35 38 44
12 13 16 18 21 23 34 32 26 19 24 28 33 35 34 33 33 35 36 36 34 31 28 23 21 22 22 21 22 21 21 20 21 21 21 22 24 26 29 32 35 36 39 41
20 16 18 22 25 39 32 21 22 23 26 28 28 28 30 31 33 34 34 33 31 29 25 26 26 25 24 23 22 22 22 22 22 23 24 25 27 29 31 34 37 40 41 41
20 15 14 20 22 13 17 23 25 27 28 27 29 31 31 33 33 32 32 31 29 28 28 26 25 25 25 25 25 25 24 25 25 26 27 28 29 31 33 37 39 43 46 48
19 14 10 7 5 13 19 22 22 23 25 28 32 34 36 37 37 36 34 30 27 26 25 26 28 27 27 27 26 26 27 27 28 29 29 30 31 34 37 40 42 44 47 49
17 12 9 7 9 13 17 18 20 23 26 29 31 33 35 35 35 34 32 29 25 25 26 26 28 28 28 28 29 30 30 30 31 32 33 34 36 37 39 42 45 48 49 52
13 11 10 11 12 14 17 20 22 24 26 30 33 35 36 35 33 30 27 26 24 26 26 28 29 30 30 32 33 33 34 35 35 36 37 38 39 40 42 45 47 49 51 53
19 17 17 17 17 18 21 25 27 29 30 32 35 36 35 32 30 29 29 27 28 27 28 30 31 32 34 35 36 37 39 38 39 40 40 40 41 43 45 47 49 51 52 53
21 21 20 22 23 25 25 26 30 31 31 33 34 35 36 34 33 31 29 27 27 28 29 32 34 35 37 38 39 40 39 40 41 42 42 43 44 46 48 49 50 52 54 55
24 24 27 27 26 25 25 28 31 34 36 40 42 41 39 38 35 32 30 30 31 32 32 33 34 36 39 41 41 42 42 42 42 44 44 45 46 48 48 50 52 54 56 57
28 28 28 29 28 28 31 35 38 38 42 44 43 43 41 40 38 37 36 35 35 34 34 35 37 40 41 42 42 43 44 45 45 45 46 47 47 48 49 51 54 56 58 60
30 33 34 34 36 37 38 40 42 44 43 44 43 41 40 41 42 42 41 41 39 38 38 39 41 43 44 45 45 46 47 47 46 46 46 46 47 49 51 53 55 57 59 61
Wind_Direction_850mb
242 254 261 236 225 226 227 232 229 246 240 255 256 252 214 220 210 205 204 200 200 200 199 204 206 206 208 217 225 232 236 241 251 262 253 252 265 293 319 359 1 11 6 360
247 247 242 250 246 242 230 235 242 247 252 254 263 263 251 217 212 212 208 207 204 202 202 204 208 212 219 223 223 221 233 255 257 248 240 243 245 286 343 15 18 19 12 6
247 241 246 247 236 237 243 236 238 241 248 256 254 257 253 232 215 214 212 206 204 204 204 206 210 213 215 222 236 243 239 243 245 241 240 248 271 353 27 25 21 19 14 9
244 248 242 241 241 231 238 238 239 243 252 253 254 264 266 252 228 220 212 203 205 206 206 208 209 210 213 217 227 236 237 241 233 230 230 223 241 358 20 22 13 13 9 5
232 242 246 286 236 224 224 239 240 241 246 254 260 264 269 253 232 228 213 210 202 208 209 208 206 208 214 221 227 233 234 231 226 226 223 216 217 321 15 9 2 360 356 354
219 253 227 244 245 239 233 249 250 242 247 247 247 240 252 253 237 219 202 196 204 210 207 206 207 214 217 223 225 235 231 225 223 217 218 226 250 330 355 349 347 348 346 344
232 247 256 268 330 174 183 239 243 231 232 237 230 227 247 259 213 199 196 199 207 207 205 207 208 210 213 214 217 223 222 217 215 213 218 240 290 325 330 333 334 338 343 341
231 238 248 251 143 204 245 297 295 272 244 247 241 235 229 222 195 192 195 198 202 201 203 205 206 208 212 218 221 219 215 210 210 214 230 249 275 311 328 335 334 331 329 329
228 243 167 186 232 279 297 294 288 278 269 265 233 219 210 198 197 197 199 199 198 200 199 200 203 206 208 212 213 213 212 207 207 215 230 256 292 308 306 310 314 318 324 329
243 247 252 260 263 258 263 266 270 267 264 256 234 218 209 202 198 196 198 198 200 199 199 200 199 201 204 210 210 208 206 206 209 218 234 256 274 286 297 309 316 323 328 330
241 260 269 265 254 254 263 276 260 263 256 245 236 223 213 201 200 198 196 196 201 201 199 197 196 201 203 200 202 202 203 208 212 219 231 246 267 287 303 312 319 325 325 325
237 238 244 276 274 276 264 268 263 263 262 245 232 222 212 203 199 200 196 193 193 194 195 194 198 198 195 196 198 201 206 212 216 226 242 261 278 293 307 313 316 318 320 320
266 246 257 269 287 280 292 265 258 251 245 238 215 208 209 202 194 195 193 191 191 194 194 195 192 192 193 195 201 206 215 222 229 240 253 266 281 291 295 300 305 310 313 314
254 269 275 272 271 307 278 266 259 250 240 224 214 198 206 202 192 189 191 192 192 191 191 190 190 192 195 199 206 214 224 234 245 256 265 275 283 290 297 302 306 311 315 316
248 252 255 271 274 279 266 262 251 229 222 211 209 203 199 193 188 185 189 189 185 185 188 189 191 196 201 209 218 230 240 249 257 263 271 279 287 295 301 307 312 316 317 316
265 256 265 278 291 287 263 228 222 198 192 191 187 184 185 189 189 188 186 186 187 186 187 191 196 202 212 222 231 241 249 254 260 268 274 283 291 297 302 308 313 317 321 323
233 269 257 256 246 234 223 202 202 193 189 188 187 186 187 187 186 186 185 186 187 188 192 199 209 219 225 231 238 243 249 254 260 267 275 283 290 296 302 307 310 315 319 322
220 228 234 230 228 213 204 194 195 194 194 195 192 190 191 192 195 192 192 192 195 201 207 215 221 227 233 240 246 250 254 259 264 270 277 284 291 296 301 305 310 314 316 318
220 235 237 220 222 209 206 201 199 198 195 196 199 199 199 199 199 199 200 203 208 212 218 226 234 238 243 246 249 252 256 261 266 271 277 283 289 295 301 306 310 313 315 318
225 237 243 241 204 189 200 201 203 203 204 204 202 201 201 201 201 201 203 209 217 224 229 235 240 242 246 250 253 257 261 265 271 276 281 286 292 296 301 304 307 311 313 314
217 229 239 230 208 206 208 213 215 213 210 207 208 207 204 202 201 204 211 219 228 236 240 244 248 252 255 258 261 263 266 270 275 280 285 289 293 297 301 304 307 309 310 311
231 246 256 255 239 229 224 219 217 215 214 208 201 199 201 203 208 215 223 233 240 246 250 251 254 256 260 264 266 268 270 273 277 281 284 287 293 297 300 302 304 305 307 310
235 244 246 244 238 231 228 226 220 216 212 211 209 207 207 214 220 226 233 240 247 253 255 257 257 259 263 266 269 270 271 274 277 280 284 288 291 295 297 299 302 304 306 308
239 243 241 237 235 233 231 228 224 220 214 211 211 214 218 224 230 235 243 249 254 258 262 261 259 257 260 265 268 270 273 275 277 281 284 287 290 293 296 298 300 303 305 306
241 245 249 249 249 247 238 232 227 223 220 219 221 223 228 233 238 244 250 254 257 261 263 264 264 264 268 271 272 273 274 275 278 281 283 286 289 292 295 298 301 303 304 305
241 248 252 253 250 244 240 237 235 231 229 230 231 234 237 241 245 251 254 259 263 265 268 269 268 267 269 271 273 273 274 276 278 279 281 285 289 293 297 300 301 303 304 305
243 245 247 249 246 243 242 241 239 239 239 239 241 241 245 248 250 253 257 260 264 268 270 272 273 273 273 274 274 273 273 273 275 278 282 287 291 295 297 299 302 304 304 304